1397 visiteurs
Prévisions de votre ville :
Vigilance : 4 départements 1 département Mise à jour le 17/10/2018 à 06:01 - Voir la carte

Paris Roissy CDG (95380) le 17/10/2018 à 07:00 Choisir station

12.5°C 90 % NO Rafales 4 km/h
Vit. moyenne 4 kmh/h

Relevés météo quotidiens pour la station de :

UTC
S: Synop
M: Metar
Loc T°C
(°C)
Td
(°C)
HR
(%)
Vis
(km)
Néb
(octa)
Vent
(km/h)
Pression
(mb)
Précipitations
(mm)
Temps
              MOY
10 min
DIR RAF 1h MESURE VAR SUR 3h    
S 00 h 02h 15.4 14.9 97 10 /8 4 7 1014.5 +0.6/3h 0.0/3h
S 01 h 03h 15.6 15.1 97 12 /8 4 15 1014.3 -0.1/3h 0.0/1h
S 02 h 04h 15.1 14.6 97 7 /8 2 6 1014.3 +0.1/3h 0.0/1h
S 03 h 05h 15.1 14.8 98 11 /8 4 4 1014.4 -0.1/3h 0.0/3h
S 04 h 06h 14.3 13.7 96 14 /8 4 6 1014.8 +0.4/3h 0.0/1h
S 05 h 07h 18.4 15.1 81 40 /8 4 7 1015.2 +1.0/3h 0.0/1h
S 06 h 08h 16.2 14.6 90 50 /8 6 11 1015.8 +1.4/3h 0.0/3h - 0.4/24h
S 07 h 09h 16.4 14.8 90 19 /8 6 9 1016.5 +1.8/3h 0.0/1h
S 08 h 10h 21.1 16.1 73 35 /8 4 4 1017.2 +2.0/3h 0.0/1h
S 09 h 11h 23.6 16.9 66 18 /8 2 4 1017.6 +2.0/3h 0.0/3h
S 10 h 12h 25.4 17.1 60 35 /8 2 4 1017.8 +1.5/3h 0.0/1h
S 11 h 13h 26.7 16.3 53 55 /8 9 26 1017.6 +0.6/3h 0.0/1h
S 12 h 14h 26.3 15.7 52 45 /8 11 33 1017.3 -0.2/3h 0.0/6h - 0.0/3h
S 13 h 15h 27.4 15.4 48 40 /8 7 22 1017.5 -0.2/3h 0.0/1h
S 14 h 16h 27.7 15.4 47 50 /8 6 13 1017.6 0.0/3h 0.0/1h
S 15 h 17h 27.9 15.2 46 50 /8 2 9 1017.7 +0.4/3h 0.0/3h
S 16 h 18h 26.8 16.4 53 18 /8 4 6 1017.7 +0.2/3h 0.0/1h
S 17 h 19h 24.3 17.8 67 18 /8 7 9 1017.8 +0.1/3h 0.0/1h
S 18 h 20h 22.6 17.1 71 45 /8 6 11 1018.2 +0.4/3h 0.0/12h - 0.0/3h
S 19 h 21h 21.6 16.5 73 55 /8 7 11 1018.6 +0.7/3h 0.0/1h
S 20 h 22h 19.7 16.3 81 50 /8 7 13 1018.8 +0.9/3h 0.0/1h
S 21 h 23h 18.7 15.9 84 45 /8 4 7 1018.5 +0.1/3h 0.0/3h
S 22 h 00h 19.3 15.2 77 50 /8 4 9 1018.1 -0.5/3h 0.0/1h
S 23 h 01h 18.4 15.1 81 45 /8 2 6 1017.9 -1.0/3h 0.0/1h
evolution des temperatures
cumul des precipitations
vent moyen et rafales
pression atmospherique

Un tiret (-) signifie que les données ne sont pas disponibles.

Passez la souris sur les pictos temps pour avoir plus de précisions. Passez les flèches sur l'icône de la direction du vent pour voir la direction précise en degrés.

Les données de l'heure en cours sont disponibles à partir de H+15 minutes.


S signifie station Synop, plus complète qu'une station Metar (M). Il y a +1h de différence entre l'heure UTC et l'heure légale en hiver et +2h en été.

Td est la mesure du point de rosée.

HR est l'humidité relative/p>

Vis est la visibilité

Néb est la nébulosité du ciel (couverture nuageuse) exprimée en octas (de 0/8 à 8/8).

Vent moy 10 min donne le vent moyen sur les 10 minutes qui précèdent le relevé.

Vent raf 1h donne la rafale maximale mesurée dans l'heure qui précède le relevé.


Les données les plus anciennes remontent à avril 2014.

Les données présentées sur cette page proviennent des stations météo officielles. Les relevés sont effectués aux normes en vigueur (anémomètre à 10m de haut, thermomètre sous abri normalisé à 2m du sol...)

Météo 60 décline toute responsabilité en cas d'absence de données, d'erreurs, de mauvaise utilisation ou interprétation et n'est pas habilité à fournir des certificats intempéries.